Regional Weather Roundup
Issued by NWS Charleston, SC

Current Version | Previous Version | Text Only | Print | Product List | Glossary Off
Versions: 1 2 3 4 5 6 7 8 9 10 11 12 13 14 15 16 17 18 19 20 21 22 23 24 25 26 27 28 29 30 31 32 33 34 35 36 37 38 39 40 41 42 43 44 45 46 47 48 49 50

278
ASUS42 KCHS 232213
RWRCHS

REGIONAL WEATHER ROUNDUP
NATIONAL WEATHER SERVICE CHARLESTON SC
600 PM EDT TUE AUG 23 2016

NOTE: "FAIR" INDICATES FEW OR NO CLOUDS BELOW 12,000 FEET WITH NO
SIGNIFICANT WEATHER AND/OR OBSTRUCTIONS TO VISIBILITY.

NOT ALL STATIONS ARE QUALITY CONTROLLED. USE DATA WITH CAUTION...
ESPECIALLY DEWPOINT OBSERVATIONS.

SCZ027-030-031-034>040-042>050-232300-
...SOUTHEAST SOUTH CAROLINA...

CITY           SKY/WX    TMP DP  RH WIND       PRES   REMARKS
N CHARLESTON   PTSUNNY   85  68  56 E12       30.20S
WATERFRONT PRK   N/A     86  75  69 E15       30.18S HX  95
MOUNT PLEASANT FAIR      84  72  65 E9        30.20F
JOHNS ISLAND   FAIR      86  72  62 E14       30.20S HX  92
PINOPOLIS        N/A     84  72  65 SE6       30.13S
MONCKS CORNER  MOCLDY    84  70  61 SE3       30.20S
SUMMERVILLE    FAIR      90  70  51 E6        30.20S HX  95
BEAUFORT MCAS  PTSUNNY   86  70  58 E7        30.20R HX  90
BEAUFORT ARPT  FAIR      86  70  58 E9        30.19S HX  90
HILTON HEAD IS PTSUNNY   86  73  66 NE7       30.20S HX  93
WALTERBORO     PTCLDY    88  70  55 SE6       30.20R HX  92
ALLENDALE      MOCLDY    90  72  55 S14       30.17S HX  96

...SOUTHERN MIDLANDS AND PEE DEE...

CITY           SKY/WX    TMP DP  RH WIND       PRES   REMARKS
GEORGETOWN     FAIR      84  66  54 E12       30.23R
KINGSTREE      FAIR      82  68  61 E12       30.21R
ORANGEBURG     PTSUNNY   87  67  51 E6        30.20R HX  90
BARNWELL       NOT AVBL
AIKEN          MOCLDY    90  64  43 E10       30.23S HX  91
MANNING        FAIR      86  70  58 SE3       30.21R HX  90
COLUMBIA       CLOUDY    91  65  41 E5        30.19R HX  93
SUMTER         PTSUNNY   88  65  45 E6        30.18R HX  90
FLORENCE       SUNNY     90  64  42 SE9       30.20S HX  91
MYRTLE BEACH   NOT AVBL
N MYRTLE BEACH SUNNY     85  64  49 E9        30.22R

$$

GAZ063-065-086>088-099>101-113>116-118-119-134>141-150-232300-
...SOUTHEAST GEORGIA...

CITY           SKY/WX    TMP DP  RH WIND       PRES   REMARKS
SAVANNAH ARPT  CLOUDY    86  71  60 E10       30.18F HX  91
HUNTER AAF     PTSUNNY   85  77  78 E12       30.16F HX  95
FORT STEWART   PTSUNNY   78  76  92 CALM      30.15F
STATESBORO     PTSUNNY   85  77  76 E6        30.18F HX  95
SYLVANIA       MOCLDY   N/A N/A N/A SE9       30.20S
CLAXTON        FAIR      82  76  81 E6        30.18F HX  90

...CSRA...CENTRAL AND FAR SOUTHEAST GEORGIA...

CITY           SKY/WX    TMP DP  RH WIND       PRES   REMARKS
THOMSON        MOSUNNY   93  70  47 MISG      30.23S HX  98
AUGUSTA-BUSH   PTSUNNY   92  66  42 E3        30.16S HX  94
AUGUSTA-DANIEL PTSUNNY   92  66  42 VRB3      30.19S HX  94
SWAINSBORO     MOCLDY    81  77  89 S5        30.19S
VIDALIA        CLOUDY    79  79 100 CALM      30.18F
EASTMAN        FAIR      83  68  59 E5        30.19F
HAZLEHURST     FAIR      80  80 100 CALM      30.16F HX  90
ALMA           LGT RAIN  77  76  96 SE5       30.18F
WAYCROSS         N/A     80  80 100 NE6       30.19R HX  90
JESUP          RAIN      77  77 100 CALM      30.19R
BAXLEY         RAIN      79  79 100 SE6       30.17F
BRUNSWICK      CLOUDY    84  79  84 E8        30.18S HX  96
SAINT SIMONS   CLOUDY    85  75  72 E12       30.17R HX  93

$$

SCZ027-028-034-036>038-045-046-048>050-GAZ119-141-232300-
...LAKE AND SUPPLEMENTAL COASTAL OBSERVATIONS...

STATION/POSITION TIME  TEMP    WIND        PRES    WAVE   SWELL
                       AIR SEA DIR/SP/G            HT/PER HT/PER/DIR
                 (UTC) (F)     (DEG/KT/KT) (MB)    (FT/S) (FT/S/D)
WINYAH BAY       NOT AVBL
LAKE MURRAY      2100   90      CALM  /  4 1021.7F
ACE BASIN NERRS  NOT AVBL
FORT PULASKI     2100   85 87   90/ 14/ 17 1022.8F
SAPELO ISLAND    2100   85      70/  9     1022.0S

$$

ANZ835-935-AMZ111-154-330-350-352-354-370-450-454-472-232300-
...C-MAN AND BUOY OBSERVATIONS...

STATION/POSITION TIME  TEMP    WIND        PRES    WAVE   SWELL
                       AIR SEA DIR/SP/G            HT/PER HT/PER/DIR
                 (UTC) (F)     (DEG/KT/KT) (MB)    (FT/S) (FT/S/D)
BUOY 41004       2150   84 85   70/ 16/ 17 1021.9S   4/ 5   2/100/ 7
BUOY 41008       2150   84 85   70/ 16/ 17 1021.3S   3/ 4
FOLLY BEACH CMAN 2200   84      90/ 14/ 16 1023.0S
CAPERS NEARSHORE 2108   84 86   90/ 14/ 19 1022.5R
FRIPP NEARSHORE  2108   85 87  100/ 16/ 19 1021.6S


STATION/POSITION TIME  TEMP    WIND        PRES    WAVE   SWELL
                       AIR SEA DIR/SP/G            HT/PER HT/PER/DIR
                 (UTC) (F)     (DEG/KT/KT) (MB)    (FT/S) (FT/S/D)
5E ST. MARYS GA  2101      84                N/A     2/ 3
FRYING PAN BUOY  2100   83 85   50/ 16/ 19 1022.5F
BUOY 41025       2150   80 85   30/ 19/ 21 1023.5F   4/ 8   2/ 50/ 8
CAPE LOOKOUT NC  2200   80      60/ 17/ 19 1023.3F
BUOY 41002       2150   83 85   60/ 14/ 16 1021.1R   4/ 5   2/ 30/ 7
BUOY 41010       NOT AVBL
ST AUGUSTINE FL  2200   84 87   70/ 12/ 14 1021.3S


$$




USA.gov is the U.S. government's official web portal to all federal, state and local government web resources and services.